[[{"header":{"parameterUnit":"m.s-1","parameterCategory":2,"la1":30.2991,"la2":30.254,"lo1":-89.0895,"lo2":-89.0444,"dy":0.0017,"dx":0.0017,"nx":28,"ny":28,"refTime":"2025-12-29T09:00:00:Z","depth":"0","parameterNumber":2,"parameterNumberName":"U-component_of_CURRENTS"},"data":[0,0,0,0,0,0,0,0,0,0,0,0,0,0,0,0,0,0,0,0,0,0,0,0,0,0,0,0,0,0,0,0,0,0,0,0,0,0,0,0,0,0,0,0,0,0,0,0,0,0,0,0,0,0,0,0,0,0,0.2377,0.238,0,0.2629,0.2632,0.2634,0.2624,0.2621,0.2618,0.2615,0.2385,0.2382,0.2379,0,0,0,0,0,0,0,0,0,0,0,0,0,0.219,0.2191,0.2376,0.238,0.2384,0.2629,0.2632,0.2635,0.2624,0.262,0.2617,0.2613,0.2386,0.2382,0.2378,0,0,0,0,0,0,0,0,0,0,0,0,0,0.2334,0.2191,0.2376,0.2412,0.2418,0.2628,0.2632,0.2635,0.2625,0.262,0.2616,0.2611,0.2387,0.2383,0.2378,0.244,0,0,0.2363,0.2361,0,0,0,0,0,0,0,0,0.2325,0.2339,0.2403,0.241,0.2417,0.2595,0.2483,0.2548,0.2626,0.2541,0.2615,0.2609,0.2417,0.241,0.2467,0.2429,0.2419,0.2362,0.2359,0.2357,0.2356,0,0,0,0,0,0,0,0.2315,0.2331,0.2471,0.2407,0.2416,0.2521,0.2533,0.2498,0.2488,0.2548,0.2549,0.2587,0.2416,0.2472,0.246,0.2415,0.2363,0.2358,0.2355,0.2353,0.2379,0.2382,0,0,0,0,0,0,0.2284,0.232,0.2463,0.2479,0.2365,0.2527,0.254,0.2538,0.2499,0.2495,0.2591,0.2586,0.2483,0.2466,0.2451,0.2418,0.2357,0.2353,0.235,0.2375,0.2379,0.2383,0,0,0,0,0,0,0.2278,0.2293,0.2453,0.2412,0.244,0.2533,0.2533,0.2546,0.2603,0.2539,0.2522,0.2634,0.2478,0.2458,0.2415,0.2411,0.2351,0.2346,0.2371,0.2376,0.2381,0.2415,0,0,0,0,0,0,0.2271,0.2288,0.229,0.2408,0.2441,0.2545,0.2538,0.2554,0.2636,0.2632,0.257,0.2545,0.2473,0.2423,0.241,0.2403,0.2342,0.2366,0.2373,0.238,0.2409,0.2421,0.2431,0,0,0,0,0,0.2263,0.2277,0.2287,0.2306,0.2433,0.2547,0.2572,0.2623,0.2642,0.266,0.263,0.2547,0.2457,0.2422,0.2406,0.2397,0.2363,0.2371,0.2379,0.2405,0.2419,0.2431,0,0,0,0,0,0,0.2208,0.2282,0.2294,0.233,0.2417,0.2545,0.259,0.2648,0.2663,0.264,0.2582,0.2556,0.2519,0.2487,0.245,0.244,0.2403,0.2408,0.2428,0.244,0.2451,0.2438,0.2338,0,0,0,0,0,0.2198,0.2248,0.2313,0.2376,0.2385,0.25,0.2564,0.2598,0.2637,0.2645,0.2593,0.2563,0.2556,0.2515,0.2482,0.2472,0.2467,0.247,0.2481,0.2489,0.2478,0.2553,0.2568,0.241,0.241,0.241,0,0,0.222,0.2272,0.2304,0.2374,0.244,0.248,0.2523,0.2608,0.2646,0.2608,0.2596,0.2584,0.2569,0.2547,0.2529,0.2501,0.2527,0.2499,0.2506,0.249,0.2563,0.2578,0.2591,0.2415,0.2414,0.2414,0,0,0.2278,0.2294,0.232,0.2388,0.2472,0.2508,0.253,0.2606,0.2613,0.2633,0.2628,0.2627,0.2583,0.258,0.2582,0.265,0.2589,0.2644,0.2661,0.2735,0.2747,0.2758,0.2731,0.2739,0.2639,0.264,0.264,0,0.2306,0.2327,0.2361,0.2407,0.2474,0.251,0.2552,0.2582,0.2642,0.2647,0.2603,0.2643,0.2605,0.2653,0.2665,0.2663,0.2671,0.2597,0.2744,0.2755,0.2765,0.2735,0.2744,0.2642,0.2642,0.2642,0.2641,0,0.2356,0.2393,0.2425,0.2467,0.2529,0.2592,0.261,0.2608,0.2607,0.2645,0.2662,0.2652,0.2677,0.2682,0.2676,0.2753,0.272,0.2751,0.2695,0.2782,0.2746,0.2754,0.2646,0.2645,0.2644,0.2643,0,0,0.2347,0.2437,0.2444,0.2476,0.2566,0.2611,0.2629,0.2653,0.2655,0.2668,0.2706,0.2723,0.2734,0.2744,0.276,0.2805,0.2864,0.2801,0.2804,0.2742,0.2961,0.2887,0.2888,0.293,0.2933,0.2935,0.2889,0,0.2367,0.2437,0.2491,0.257,0.258,0.264,0.2648,0.2686,0.2686,0.2694,0.2731,0.2754,0.276,0.2769,0.2831,0.2857,0.2895,0.2868,0.2912,0.2911,0.2812,0.29,0.2845,0.2798,0.2897,0.2898,0.2899,0,0.2337,0.2396,0.2462,0.256,0.2564,0.2613,0.263,0.2665,0.2693,0.2697,0.276,0.2785,0.2852,0.2853,0.294,0.2925,0.2948,0.2961,0.2962,0.2885,0.2856,0.2741,0.2809,0.288,0.2911,0.291,0.2909,0,0.2248,0.2358,0.2405,0.2465,0.2562,0.2585,0.2617,0.265,0.2662,0.2721,0.2739,0.2823,0.2859,0.2931,0.2963,0.296,0.3041,0.3046,0.2995,0.2986,0.294,0.2923,0.3058,0.3133,0.3133,0.3133,0.3133,0,0.2234,0.2282,0.2355,0.2411,0.2424,0.2521,0.2538,0.257,0.2622,0.2663,0.275,0.2794,0.2892,0.2951,0.2978,0.2996,0.3066,0.2996,0.2994,0.2947,0.2932,0.2992,0.3013,0.3131,0.3132,0.3132,0.3132,0,0.2181,0.2237,0.2288,0.2374,0.2395,0.2407,0.2506,0.2509,0.2566,0.2633,0.2662,0.2775,0.2854,0.292,0.3008,0.2997,0.2987,0.3027,0.2907,0.2893,0.2871,0.2894,0.2823,0.2737,0.2928,0.2926,0.2925,0,0.2165,0.2194,0.2253,0.2272,0.2333,0.2367,0.2384,0.2457,0.2506,0.2622,0.2665,0.2757,0.2844,0.2908,0.293,0.2946,0.2949,0.2856,0.2857,0.2867,0.2894,0.2796,0.2722,0.2785,0.2783,0.2781,0.2779,0,0.2179,0.2193,0.2244,0.2254,0.2281,0.2303,0.2369,0.2381,0.2484,0.2542,0.2636,0.2707,0.2809,0.2827,0.285,0.2847,0.2787,0.2811,0.2905,0.2857,0.268,0.2597,0.2751,0.2761,0.2763,0.2765,0.2766,0.2766,0.2183,0.2174,0.2217,0.224,0.2262,0.2256,0.2248,0.2339,0.2383,0.2465,0.2564,0.264,0.274,0.2783,0.2764,0.2743,0.2689,0.2709,0.2744,0.2648,0.2559,0.2614,0.2585,0.2586,0.2587,0.2587,0.2588,0,0.2147,0.2166,0.2206,0.22,0.2206,0.2223,0.2246,0.2223,0.2263,0.2384,0.2449,0.2539,0.2624,0.2691,0.274,0.2716,0.2593,0.2701,0.2624,0.2556,0.2712,0.2708,0.2607,0.2607,0.2607,0.2607,0.2607,0.2607,0.2117,0.2129,0.2139,0.214,0.2142,0.2072,0.2046,0.2044,0.2111,0.2161,0.2218,0.2302,0.2592,0.288,0.2942,0.2864,0.2734,0.2642,0.2627,0.2874,0.288,0.2886,0.2894,0.2834,0.2834,0.2378,0.2376,0.2374]},{"header":{"parameterUnit":"m.s-1","parameterCategory":2,"la1":30.2991,"la2":30.254,"lo1":-89.0895,"lo2":-89.0444,"dy":0.0017,"dx":0.0017,"nx":28,"ny":28,"refTime":"2025-12-29T09:00:00:Z","depth":"0","parameterNumber":3,"parameterNumberName":"V-component_of_CURRENTS"},"data":[0,0,0,0,0,0,0,0,0,0,0,0,0,0,0,0,0,0,0,0,0,0,0,0,0,0,0,0,0,0,0,0,0,0,0,0,0,0,0,0,0,0,0,0,0,0,0,0,0,0,0,0,0,0,0,0,0,0,-0.1076,-0.1079,0,-0.1305,-0.1306,-0.1308,-0.1343,-0.1342,-0.1341,-0.134,-0.1211,-0.1208,-0.1206,0,0,0,0,0,0,0,0,0,0,0,0,0,-0.0844,-0.0846,-0.1076,-0.108,-0.1084,-0.1304,-0.1306,-0.1308,-0.1344,-0.1342,-0.1341,-0.134,-0.1212,-0.1209,-0.1206,0,0,0,0,0,0,0,0,0,0,0,0,0,-0.0985,-0.0846,-0.1075,-0.1135,-0.1144,-0.1304,-0.1306,-0.1309,-0.1344,-0.1342,-0.1341,-0.1339,-0.1213,-0.1209,-0.1205,-0.1216,0,0,-0.1194,-0.1193,0,0,0,0,0,0,0,0,-0.0977,-0.0992,-0.1123,-0.1132,-0.1141,-0.1303,-0.1178,-0.1264,-0.1344,-0.1257,-0.134,-0.1338,-0.1216,-0.1212,-0.1249,-0.121,-0.1204,-0.1194,-0.1192,-0.119,-0.1189,0,0,0,0,0,0,0,-0.0967,-0.0984,-0.1156,-0.1127,-0.1139,-0.1211,-0.1227,-0.1196,-0.1228,-0.1264,-0.127,-0.1313,-0.1217,-0.1253,-0.1246,-0.1202,-0.1194,-0.1191,-0.1189,-0.1187,-0.1107,-0.1107,0,0,0,0,0,0,-0.0953,-0.0974,-0.1149,-0.1164,-0.1065,-0.1217,-0.1234,-0.1244,-0.1237,-0.124,-0.1314,-0.1314,-0.126,-0.125,-0.1241,-0.1176,-0.119,-0.1187,-0.1185,-0.1106,-0.1107,-0.1107,0,0,0,0,0,0,-0.0946,-0.0965,-0.114,-0.1084,-0.1113,-0.1222,-0.1234,-0.125,-0.1297,-0.128,-0.1274,-0.1347,-0.1259,-0.1246,-0.1182,-0.1173,-0.1185,-0.1182,-0.1106,-0.1106,-0.1107,-0.1093,0,0,0,0,0,0,-0.0938,-0.096,-0.0983,-0.1082,-0.1116,-0.118,-0.1238,-0.1256,-0.133,-0.1332,-0.1306,-0.1293,-0.1256,-0.1187,-0.1178,-0.1168,-0.1179,-0.1106,-0.1106,-0.1107,-0.1093,-0.1092,-0.1092,0,0,0,0,0,-0.0928,-0.0957,-0.0982,-0.1006,-0.1135,-0.118,-0.1199,-0.1269,-0.1333,-0.1314,-0.1309,-0.1294,-0.1182,-0.1183,-0.1173,-0.1162,-0.1106,-0.1106,-0.1107,-0.1093,-0.1092,-0.1092,0,0,0,0,0,0,-0.0888,-0.0968,-0.0996,-0.1053,-0.1089,-0.1188,-0.1221,-0.1284,-0.1286,-0.1289,-0.128,-0.1263,-0.1232,-0.1193,-0.1196,-0.1143,-0.1149,-0.1147,-0.1143,-0.1141,-0.1141,-0.1131,-0.1176,0,0,0,0,0,-0.0889,-0.0955,-0.0987,-0.1065,-0.1045,-0.1141,-0.119,-0.1223,-0.1248,-0.1255,-0.1223,-0.1211,-0.123,-0.1177,-0.1169,-0.1106,-0.1075,-0.1099,-0.1098,-0.1097,-0.1085,-0.1056,-0.1051,-0.1107,-0.1107,-0.1107,0,0,-0.0922,-0.0983,-0.1026,-0.1066,-0.1104,-0.1103,-0.1159,-0.1206,-0.1232,-0.1232,-0.1209,-0.1218,-0.1228,-0.1181,-0.1159,-0.1129,-0.1058,-0.1097,-0.1097,-0.1085,-0.1056,-0.105,-0.1045,-0.1107,-0.1107,-0.1107,0,0,-0.0965,-0.1021,-0.1022,-0.1063,-0.1104,-0.112,-0.1127,-0.1152,-0.1154,-0.1146,-0.1189,-0.1167,-0.1143,-0.1131,-0.1145,-0.1129,-0.1095,-0.1139,-0.1072,-0.1044,-0.1039,-0.1034,-0.0951,-0.0939,-0.109,-0.109,-0.109,0,-0.1003,-0.1008,-0.1036,-0.105,-0.1094,-0.1117,-0.1099,-0.1126,-0.114,-0.1118,-0.1115,-0.1133,-0.113,-0.113,-0.1129,-0.1126,-0.1088,-0.1075,-0.1041,-0.1036,-0.1031,-0.0948,-0.0935,-0.1089,-0.1089,-0.1089,-0.1089,0,-0.0999,-0.1038,-0.1048,-0.1062,-0.1083,-0.11,-0.1096,-0.104,-0.105,-0.1096,-0.1068,-0.1056,-0.1051,-0.1066,-0.1098,-0.1072,-0.1049,-0.1083,-0.104,-0.1024,-0.0938,-0.0924,-0.1088,-0.1088,-0.1088,-0.1089,0,0,-0.0955,-0.1024,-0.1016,-0.1031,-0.1094,-0.1086,-0.1061,-0.101,-0.0974,-0.0984,-0.0947,-0.1003,-0.1004,-0.1019,-0.1034,-0.0992,-0.0932,-0.1007,-0.1006,-0.0916,-0.0822,-0.0862,-0.0851,-0.0962,-0.096,-0.0959,-0.0761,0,-0.0914,-0.0921,-0.0968,-0.0988,-0.0962,-0.0992,-0.0952,-0.0951,-0.0927,-0.0871,-0.0911,-0.0918,-0.0996,-0.0964,-0.0956,-0.0955,-0.0901,-0.0979,-0.0858,-0.0852,-0.0885,-0.084,-0.0886,-0.0721,-0.0748,-0.0746,-0.0744,0,-0.0811,-0.0845,-0.0837,-0.0882,-0.0853,-0.0881,-0.0771,-0.0766,-0.0739,-0.0711,-0.0735,-0.0793,-0.0785,-0.0843,-0.0802,-0.0847,-0.0838,-0.0822,-0.0815,-0.085,-0.087,-0.0749,-0.0695,-0.0909,-0.0723,-0.0725,-0.0726,0,-0.0697,-0.0726,-0.0715,-0.0773,-0.0811,-0.0773,-0.0756,-0.0715,-0.0654,-0.0641,-0.0595,-0.0634,-0.0621,-0.0633,-0.0681,-0.0718,-0.0614,-0.0654,-0.0666,-0.0665,-0.0679,-0.0685,-0.0814,-0.0612,-0.0612,-0.0613,-0.0613,0,-0.0659,-0.0661,-0.066,-0.0722,-0.0628,-0.0692,-0.0599,-0.0555,-0.0493,-0.043,-0.0544,-0.0477,-0.0577,-0.0571,-0.0604,-0.0594,-0.0557,-0.0635,-0.0624,-0.0674,-0.0681,-0.085,-0.0951,-0.0605,-0.0607,-0.0609,-0.061,0,-0.063,-0.0642,-0.0635,-0.0633,-0.0621,-0.057,-0.0538,-0.0423,-0.0405,-0.0308,-0.0306,-0.034,-0.0335,-0.0417,-0.0402,-0.0481,-0.0566,-0.0477,-0.0512,-0.0513,-0.0741,-0.0837,-0.0877,-0.096,-0.0414,-0.0414,-0.0414,0,-0.0617,-0.0643,-0.0587,-0.0521,-0.0557,-0.0493,-0.0395,-0.0371,-0.0283,-0.021,-0.014,-0.0155,-0.014,-0.0169,-0.0312,-0.0347,-0.0534,-0.0428,-0.0537,-0.0748,-0.0845,-0.0919,-0.0993,-0.051,-0.0511,-0.0511,-0.0512,0,-0.0646,-0.063,-0.0595,-0.047,-0.0384,-0.0272,-0.0193,-0.0108,-0.0036,0.004,0.0146,0.0153,0.0035,-0.0077,-0.0232,-0.0298,-0.0608,-0.0442,-0.0657,-0.093,-0.1017,-0.1094,-0.0612,-0.0517,-0.0517,-0.0516,-0.0516,-0.0516,-0.0607,-0.0529,-0.0451,-0.0345,-0.0221,-0.0044,0.0017,0.013,0.0267,0.0376,0.0368,0.0395,0.0117,-0.0123,-0.0272,-0.0669,-0.0633,-0.0782,-0.0863,-0.0905,-0.1072,-0.0592,-0.0517,-0.0517,-0.0516,-0.0516,-0.0516,0,-0.0469,-0.0396,-0.0314,-0.0142,-0.0012,0.0021,0.0196,0.027,0.0412,0.052,0.058,0.0453,0.0113,-0.0252,-0.0763,-0.1037,-0.1163,-0.122,-0.1363,-0.1403,-0.0965,-0.1068,-0.1118,-0.1118,-0.1117,-0.1117,-0.1117,-0.1117,-0.0345,-0.0227,-0.0197,0.0021,0.0125,0.0296,0.0395,0.05,0.0565,0.0655,0.0653,0.0611,0.0211,-0.0691,-0.1381,-0.1522,-0.1775,-0.1804,-0.1907,-0.1675,-0.1643,-0.1612,-0.1738,-0.1928,-0.1929,-0.2343,-0.2347,-0.235]}],[{"header":{"parameterUnit":"m.s-1","parameterCategory":2,"la1":30.2991,"la2":30.254,"lo1":-89.0895,"lo2":-89.0444,"dy":0.0017,"dx":0.0017,"nx":28,"ny":28,"refTime":"2025-12-29T09:00:00:Z","depth":"2","parameterNumber":2,"parameterNumberName":"U-component_of_CURRENTS"},"data":[0,0,0,0,0,0,0,0,0,0,0,0,0,0,0,0,0,0,0,0,0,0,0,0,0,0,0,0,0,0,0,0,0,0,0,0,0,0,0,0,0,0,0,0,0,0,0,0,0,0,0,0,0,0,0,0,0,0,0.1949,0.1953,0,0.2063,0.2062,0.2061,0.1957,0.1956,0.1955,0.1954,0.1813,0.181,0.1807,0,0,0,0,0,0,0,0,0,0,0,0,0,0.1829,0.1827,0.1949,0.1953,0.1958,0.2064,0.2062,0.206,0.1957,0.1955,0.1954,0.1953,0.1814,0.181,0.1807,0,0,0,0,0,0,0,0,0,0,0,0,0,0.1872,0.1827,0.1948,0.1945,0.1948,0.2064,0.2062,0.206,0.1957,0.1955,0.1954,0.1952,0.1815,0.1811,0.1807,0.1812,0,0,0.1794,0.1792,0,0,0,0,0,0,0,0,0.187,0.1872,0.1941,0.1946,0.195,0.2025,0.1971,0.1976,0.1957,0.1917,0.1953,0.1952,0.1884,0.1874,0.1853,0.1806,0.1799,0.1794,0.1791,0.1789,0.1788,0,0,0,0,0,0,0,0.1866,0.1868,0.1959,0.1947,0.1952,0.2006,0.2003,0.197,0.1876,0.192,0.1922,0.199,0.1879,0.1857,0.1849,0.1797,0.1794,0.179,0.1787,0.1786,0.1835,0.1838,0,0,0,0,0,0,0.1914,0.1864,0.1956,0.1966,0.1944,0.201,0.2007,0.1974,0.1882,0.1879,0.1992,0.1986,0.1865,0.1854,0.1844,0.1859,0.1789,0.1785,0.1783,0.1831,0.1835,0.1839,0,0,0,0,0,0,0.1909,0.1916,0.1952,0.1952,0.1965,0.2016,0.1978,0.1978,0.1957,0.1946,0.1929,0.1977,0.1864,0.1849,0.188,0.1852,0.1784,0.178,0.1826,0.1832,0.1837,0.1881,0,0,0,0,0,0,0.1902,0.191,0.1885,0.1951,0.1968,0.2068,0.1984,0.1982,0.202,0.2011,0.1928,0.1914,0.1861,0.1888,0.1876,0.1845,0.1776,0.1822,0.1829,0.1836,0.1875,0.1888,0.1899,0,0,0,0,0,0.1896,0.1862,0.1879,0.1894,0.1931,0.2076,0.2085,0.2096,0.2021,0.2053,0.2013,0.1916,0.1923,0.1889,0.1874,0.1841,0.1818,0.1827,0.1835,0.187,0.1885,0.1898,0,0,0,0,0,0,0.1803,0.1855,0.1873,0.1856,0.1998,0.2072,0.2101,0.2103,0.2087,0.2058,0.1976,0.1965,0.1941,0.1939,0.1903,0.189,0.1848,0.1855,0.188,0.1894,0.1905,0.1925,0.1773,0,0,0,0,0,0.1784,0.1756,0.1888,0.1896,0.1955,0.2022,0.2069,0.2106,0.2134,0.2119,0.2071,0.2026,0.1967,0.1976,0.1925,0.196,0.1976,0.1936,0.1947,0.1957,0.1973,0.2063,0.2084,0.1868,0.1867,0.1867,0,0,0.1805,0.1795,0.1814,0.188,0.1951,0.2016,0.2034,0.2142,0.2152,0.211,0.2065,0.2036,0.1979,0.1979,0.1974,0.1982,0.2022,0.1968,0.1975,0.1986,0.2074,0.2095,0.2113,0.1873,0.1872,0.1871,0,0,0.1842,0.1781,0.1814,0.1873,0.2011,0.2039,0.2078,0.2178,0.2171,0.2207,0.213,0.2159,0.2078,0.2076,0.2041,0.2118,0.2043,0.2067,0.2175,0.2262,0.228,0.2296,0.2306,0.2323,0.212,0.212,0.212,0,0.1856,0.1849,0.1877,0.1902,0.1947,0.2035,0.2111,0.2113,0.2207,0.2225,0.2204,0.2158,0.2118,0.2121,0.2146,0.2131,0.215,0.2104,0.2274,0.229,0.2306,0.2313,0.2331,0.2124,0.2123,0.2123,0.2123,0,0.195,0.1913,0.1934,0.1938,0.2005,0.208,0.2144,0.2214,0.22,0.2192,0.2221,0.224,0.2238,0.2219,0.2187,0.227,0.2231,0.2232,0.2224,0.2329,0.2331,0.2348,0.2128,0.2127,0.2126,0.2125,0,0,0.2002,0.2002,0.1997,0.1985,0.201,0.2082,0.213,0.2216,0.2238,0.228,0.231,0.2282,0.2311,0.229,0.2295,0.2406,0.2511,0.2384,0.2387,0.2369,0.2654,0.2556,0.2564,0.2539,0.2544,0.2547,0.2596,0,0.2063,0.2096,0.2077,0.2088,0.2109,0.2159,0.2184,0.2253,0.2283,0.2319,0.2352,0.2324,0.2313,0.2353,0.2453,0.2474,0.2566,0.2494,0.2578,0.258,0.246,0.2586,0.2351,0.2371,0.2613,0.2616,0.2618,0,0.2115,0.2115,0.217,0.2131,0.2157,0.2166,0.2263,0.2295,0.2353,0.2401,0.2452,0.2412,0.251,0.251,0.2652,0.2602,0.2636,0.2679,0.2682,0.2592,0.2517,0.2317,0.2393,0.2646,0.2644,0.2642,0.264,0,0.2091,0.2117,0.2144,0.2128,0.216,0.2214,0.2232,0.2318,0.2352,0.2435,0.2492,0.2546,0.2597,0.2685,0.2723,0.2703,0.2874,0.2851,0.2794,0.2783,0.2604,0.2571,0.2982,0.2982,0.2982,0.2982,0.2981,0,0.2022,0.2027,0.2135,0.2103,0.2148,0.2188,0.2228,0.2314,0.2412,0.2436,0.249,0.2577,0.2656,0.2721,0.2761,0.2817,0.2901,0.2831,0.2819,0.2608,0.2577,0.2836,0.2819,0.2983,0.2983,0.2983,0.2982,0,0.1929,0.1984,0.1999,0.2083,0.2095,0.212,0.2162,0.2247,0.2352,0.2433,0.2457,0.259,0.2704,0.2753,0.2888,0.2858,0.2928,0.2923,0.2625,0.2579,0.2759,0.2744,0.2874,0.2872,0.287,0.2868,0.2867,0,0.1905,0.1888,0.1967,0.2006,0.2018,0.2061,0.2129,0.22,0.2271,0.2447,0.2491,0.2615,0.271,0.2826,0.2797,0.2827,0.2911,0.2611,0.2555,0.2788,0.2763,0.2751,0.2739,0.2313,0.2307,0.2302,0.2298,0,0.1818,0.1841,0.1887,0.1986,0.2029,0.206,0.2118,0.2151,0.2285,0.2381,0.2523,0.2608,0.2692,0.2606,0.2613,0.2601,0.2583,0.2515,0.2884,0.2375,0.2263,0.2236,0.2242,0.2255,0.226,0.2263,0.2265,0.2267,0.1792,0.1841,0.1923,0.1995,0.2051,0.2098,0.2049,0.217,0.2229,0.2314,0.2426,0.245,0.243,0.2323,0.226,0.2186,0.2387,0.2267,0.228,0.2299,0.2225,0.2116,0.2063,0.2066,0.2068,0.2071,0.2073,0,0.1828,0.1885,0.1951,0.2019,0.2051,0.2075,0.2097,0.2039,0.2071,0.2164,0.2205,0.1965,0.193,0.193,0.1762,0.1759,0.1728,0.1679,0.1621,0.1665,0.1705,0.1598,0.127,0.1268,0.1265,0.1263,0,0,0.1859,0.1912,0.1952,0.1992,0.2039,0.1997,0.1958,0.1893,0.1854,0.1793,0.1733,0.1808,0.186,0.1509,0.1475,0.1355,0.1492,0.129,0.1939,0.1915,0.195,0.2055,0.1943,0,0,0,0,0]},{"header":{"parameterUnit":"m.s-1","parameterCategory":2,"la1":30.2991,"la2":30.254,"lo1":-89.0895,"lo2":-89.0444,"dy":0.0017,"dx":0.0017,"nx":28,"ny":28,"refTime":"2025-12-29T09:00:00:Z","depth":"2","parameterNumber":3,"parameterNumberName":"V-component_of_CURRENTS"},"data":[0,0,0,0,0,0,0,0,0,0,0,0,0,0,0,0,0,0,0,0,0,0,0,0,0,0,0,0,0,0,0,0,0,0,0,0,0,0,0,0,0,0,0,0,0,0,0,0,0,0,0,0,0,0,0,0,0,0,-0.0304,-0.0305,0,-0.0323,-0.0322,-0.0321,-0.0318,-0.0319,-0.032,-0.032,-0.0342,-0.0342,-0.0341,0,0,0,0,0,0,0,0,0,0,0,0,0,-0.0302,-0.03,-0.0304,-0.0306,-0.0307,-0.0323,-0.0322,-0.0321,-0.0318,-0.0319,-0.032,-0.0321,-0.0342,-0.0342,-0.0341,0,0,0,0,0,0,0,0,0,0,0,0,0,-0.0297,-0.03,-0.0304,-0.0317,-0.0319,-0.0323,-0.0322,-0.032,-0.0317,-0.0319,-0.032,-0.0321,-0.0342,-0.0342,-0.0341,-0.0313,0,0,-0.034,-0.034,0,0,0,0,0,0,0,0,-0.0297,-0.0295,-0.0314,-0.0316,-0.0319,-0.0331,-0.033,-0.0323,-0.0317,-0.0304,-0.032,-0.0322,-0.0346,-0.0345,-0.0327,-0.0314,-0.0315,-0.034,-0.034,-0.034,-0.034,0,0,0,0,0,0,0,-0.0298,-0.0295,-0.0298,-0.0315,-0.0319,-0.0335,-0.0334,-0.0327,-0.0307,-0.0305,-0.0309,-0.0331,-0.0346,-0.0327,-0.0328,-0.0315,-0.034,-0.034,-0.034,-0.0339,-0.0334,-0.0334,0,0,0,0,0,0,-0.0318,-0.0295,-0.0298,-0.03,-0.0326,-0.0335,-0.0333,-0.0315,-0.0308,-0.0312,-0.033,-0.0331,-0.0327,-0.0328,-0.0329,-0.0346,-0.034,-0.0339,-0.0339,-0.0334,-0.0334,-0.0334,0,0,0,0,0,0,-0.0317,-0.0316,-0.0297,-0.0311,-0.0312,-0.0335,-0.0314,-0.0315,-0.0295,-0.0329,-0.033,-0.0311,-0.0328,-0.0329,-0.0399,-0.0345,-0.0339,-0.0339,-0.0333,-0.0334,-0.0334,-0.0348,0,0,0,0,0,0,-0.0316,-0.0314,-0.0304,-0.0311,-0.0312,-0.0373,-0.0314,-0.0315,-0.0314,-0.0314,-0.0313,-0.0316,-0.033,-0.0401,-0.0399,-0.0345,-0.0339,-0.0333,-0.0334,-0.0334,-0.0347,-0.0348,-0.0349,0,0,0,0,0,-0.0315,-0.0286,-0.0302,-0.0304,-0.0296,-0.0378,-0.0381,-0.0392,-0.0311,-0.036,-0.036,-0.0316,-0.0396,-0.0404,-0.0401,-0.0344,-0.0333,-0.0333,-0.0334,-0.0347,-0.0348,-0.0349,0,0,0,0,0,0,-0.0292,-0.0284,-0.0302,-0.0277,-0.0369,-0.0385,-0.0386,-0.0378,-0.0397,-0.0386,-0.0359,-0.0369,-0.0367,-0.0381,-0.0388,-0.0343,-0.0337,-0.0337,-0.0348,-0.0349,-0.035,-0.0347,-0.0338,0,0,0,0,0,-0.0283,-0.0258,-0.0315,-0.032,-0.0332,-0.0347,-0.0363,-0.0408,-0.043,-0.0433,-0.0429,-0.0406,-0.0359,-0.0387,-0.037,-0.0395,-0.0388,-0.0343,-0.0345,-0.0345,-0.0342,-0.0329,-0.0329,-0.0334,-0.0334,-0.0334,0,0,-0.0307,-0.028,-0.0288,-0.0317,-0.0334,-0.0337,-0.0356,-0.0419,-0.0406,-0.0434,-0.0396,-0.0402,-0.036,-0.037,-0.0369,-0.0391,-0.0343,-0.0346,-0.0347,-0.0342,-0.033,-0.0329,-0.0328,-0.0334,-0.0334,-0.0334,0,0,-0.0336,-0.0283,-0.0289,-0.03,-0.0365,-0.0367,-0.0381,-0.0429,-0.0433,-0.0462,-0.042,-0.0451,-0.0399,-0.0401,-0.0363,-0.0366,-0.0319,-0.0319,-0.0359,-0.0348,-0.0347,-0.0346,-0.0348,-0.0347,-0.0357,-0.0357,-0.0357,0,-0.0342,-0.0321,-0.0331,-0.0301,-0.0276,-0.0351,-0.0349,-0.0353,-0.0438,-0.0433,-0.0463,-0.0392,-0.039,-0.0345,-0.0361,-0.036,-0.0357,-0.0356,-0.0349,-0.0348,-0.0347,-0.0349,-0.0348,-0.0358,-0.0358,-0.0358,-0.0358,0,-0.0397,-0.0328,-0.031,-0.0255,-0.0266,-0.0282,-0.0296,-0.0379,-0.036,-0.0322,-0.0327,-0.0395,-0.037,-0.0351,-0.0353,-0.0331,-0.033,-0.0321,-0.0346,-0.0347,-0.0349,-0.0348,-0.0359,-0.0358,-0.0358,-0.0358,0,0,-0.0439,-0.0363,-0.0333,-0.0263,-0.0217,-0.0226,-0.0249,-0.0263,-0.0254,-0.0308,-0.0265,-0.0251,-0.0297,-0.0269,-0.0313,-0.0347,-0.0354,-0.0354,-0.0353,-0.0356,-0.0338,-0.0345,-0.0344,-0.0345,-0.0345,-0.0344,-0.0346,0,-0.0447,-0.039,-0.0331,-0.0217,-0.0165,-0.0183,-0.0185,-0.0213,-0.0229,-0.0227,-0.0245,-0.0182,-0.024,-0.0286,-0.032,-0.0333,-0.035,-0.0355,-0.0335,-0.0335,-0.0341,-0.0342,-0.0303,-0.0302,-0.0345,-0.0345,-0.0345,0,-0.0446,-0.0405,-0.0345,-0.0184,-0.016,-0.0107,-0.0133,-0.013,-0.0146,-0.0196,-0.0203,-0.0163,-0.0201,-0.0252,-0.0305,-0.0308,-0.0316,-0.034,-0.034,-0.0338,-0.0339,-0.0305,-0.0298,-0.0342,-0.0343,-0.0343,-0.0343,0,-0.0434,-0.0314,-0.026,-0.0194,-0.0124,-0.0119,-0.0068,-0.0111,-0.0104,-0.0129,-0.0158,-0.0163,-0.0189,-0.0219,-0.0267,-0.0282,-0.0306,-0.032,-0.0327,-0.0328,-0.0286,-0.0284,-0.0311,-0.0311,-0.0311,-0.0311,-0.0311,0,-0.0312,-0.023,-0.0252,-0.0169,-0.0114,-0.0065,-0.0002,-0.0061,-0.0098,-0.002,-0.0082,-0.0115,-0.0178,-0.0184,-0.0237,-0.0289,-0.0274,-0.0327,-0.0326,-0.0292,-0.0291,-0.0315,-0.0316,-0.0311,-0.0311,-0.0311,-0.0311,0,-0.0211,-0.0216,-0.0136,-0.0108,-0.0069,-0.0008,0.0124,0.0097,0.0022,0.0062,0.0071,-0.0029,-0.0082,-0.0142,-0.0191,-0.0249,-0.0293,-0.0292,-0.026,-0.0255,-0.0334,-0.0335,-0.0325,-0.0325,-0.0325,-0.0325,-0.0325,0,-0.0179,-0.0116,-0.0091,-0.0053,0.0015,0.0105,0.0113,0.0139,0.0174,0.0123,0.0166,0.0104,0.0082,-0.0042,-0.0142,-0.0229,-0.0252,-0.0258,-0.028,-0.0334,-0.0333,-0.0334,-0.0335,-0.0234,-0.0233,-0.0233,-0.0232,0,-0.0037,-0.0038,-0.0003,-0.0003,0.008,0.0176,0.0292,0.0323,0.0331,0.0324,0.0335,0.0317,0.0178,0.0091,-0.0065,-0.013,-0.0259,-0.0252,-0.0291,-0.0242,-0.025,-0.0249,-0.0252,-0.0228,-0.0228,-0.0228,-0.0229,-0.0229,0.004,0.0031,0.0036,0.0082,0.0155,0.0238,0.0366,0.0438,0.0528,0.0584,0.0554,0.0536,0.0368,0.0198,0.0027,-0.0183,-0.0194,-0.0253,-0.0254,-0.0255,-0.025,-0.0258,-0.0237,-0.0237,-0.0238,-0.0238,-0.0238,0,0.0058,0.0073,0.012,0.0178,0.0263,0.029,0.0442,0.0553,0.0694,0.0729,0.079,0.0697,0.0547,0.0318,0.0023,-0.0157,-0.0175,-0.0222,-0.02,-0.0203,-0.0206,-0.0198,-0.0172,-0.0172,-0.0173,-0.0173,0,0,0.0079,0.0122,0.0112,0.0268,0.0308,0.0433,0.0529,0.0695,0.0812,0.092,0.0942,0.0956,0.0648,0.048,0.0208,0.0008,-0.0055,-0.0028,-0.0061,-0.0007,-0.0008,-0.0205,-0.0195,0,0,0,0,0]}],[{"header":{"parameterUnit":"m.s-1","parameterCategory":2,"la1":30.2991,"la2":30.254,"lo1":-89.0895,"lo2":-89.0444,"dy":0.0017,"dx":0.0017,"nx":28,"ny":28,"refTime":"2025-12-29T09:00:00:Z","depth":"4","parameterNumber":2,"parameterNumberName":"U-component_of_CURRENTS"},"data":[0,0,0,0,0,0,0,0,0,0,0,0,0,0,0,0,0,0,0,0,0,0,0,0,0,0,0,0,0,0,0,0,0,0,0,0,0,0,0,0,0,0,0,0,0,0,0,0,0,0,0,0,0,0,0,0,0,0,0.0223,0.0219,0,-0.0068,-0.0071,-0.0073,-0.0059,-0.0057,-0.0054,-0.0051,0.0287,0.0294,0.03,0,0,0,0,0,0,0,0,0,0,0,0,0,0.0422,0.0422,0.0224,0.0218,0.0213,-0.0068,-0.0071,-0.0073,-0.006,-0.0056,-0.0053,-0.005,0.0285,0.0293,0.0301,0,0,0,0,0,0,0,0,0,0,0,0,0,0.027,0.0422,0.0224,0.0174,0.0166,-0.0068,-0.0071,-0.0074,-0.006,-0.0056,-0.0052,-0.0049,0.0283,0.0292,0.0302,0.0282,0,0,0.0332,0.0336,0,0,0,0,0,0,0,0,0.0279,0.0265,0.0187,0.0177,0.0167,-0.0037,0.0122,0.0071,-0.0061,0.0042,-0.0051,-0.0047,0.0224,0.0238,0.0189,0.0298,0.0312,0.0333,0.0339,0.0343,0.0346,0,0,0,0,0,0,0,0.029,0.0275,0.0124,0.018,0.0168,0.0038,0.0026,0.0109,0.0139,0.0034,0.003,-0.003,0.0226,0.0178,0.0198,0.0317,0.0332,0.0341,0.0347,0.0351,0.05,0.0498,0,0,0,0,0,0,0.0309,0.0287,0.0133,0.0114,0.0216,0.0032,0.0019,0.0037,0.0124,0.013,-0.0033,-0.0028,0.016,0.0187,0.0211,0.0414,0.0343,0.0352,0.0357,0.0502,0.0499,0.0497,0,0,0,0,0,0,0.0316,0.0301,0.0145,0.0176,0.0145,0.0025,0.0044,0.0029,0.0013,0.0063,0.0087,-0.0031,0.0164,0.0198,0.0332,0.0421,0.0356,0.0365,0.0504,0.0501,0.0498,0.0682,0,0,0,0,0,0,0.0324,0.0308,0.0326,0.018,0.0144,0.0053,0.0038,0.002,-0.004,-0.0035,0.0073,0.0104,0.017,0.0317,0.0342,0.0433,0.0373,0.0506,0.0502,0.0499,0.0679,0.0686,0.0693,0,0,0,0,0,0.0334,0.0311,0.0331,0.0309,0.0178,0.0051,0.0024,-0.0043,-0.0043,-0.0041,0.0039,0.0103,0.0309,0.0325,0.0355,0.0451,0.0508,0.0504,0.0499,0.0676,0.0685,0.0692,0,0,0,0,0,0,0.035,0.0304,0.0324,0.0281,0.0206,0.0049,-0.0005,-0.0037,0.0003,0.0041,0.0117,0.0155,0.0296,0.0304,0.0318,0.0455,0.0403,0.0404,0.0526,0.0536,0.0542,0.0538,0.0381,0,0,0,0,0,0.0377,0.0384,0.0304,0.026,0.0237,0.0133,0.0068,0.0043,0.003,0.0045,0.0093,0.0164,0.0279,0.036,0.0419,0.0524,0.0516,0.0574,0.0581,0.0589,0.0588,0.0575,0.0585,0.0483,0.0483,0.0483,0,0,0.0337,0.0324,0.0311,0.0268,0.0201,0.0171,0.0111,0.0033,0.005,0.009,0.014,0.0204,0.0301,0.0423,0.0482,0.0468,0.0627,0.0583,0.0591,0.0586,0.0572,0.0583,0.0593,0.048,0.0481,0.0481,0,0,0.028,0.0297,0.0308,0.0276,0.0215,0.0171,0.0168,0.0063,0.0087,0.0166,0.0182,0.0253,0.0423,0.0452,0.0524,0.0576,0.0655,0.0624,0.0703,0.0693,0.0704,0.0713,0.0806,0.0822,0.0641,0.0642,0.0642,0,0.0257,0.029,0.0268,0.0275,0.0229,0.0194,0.0178,0.019,0.0142,0.0205,0.0233,0.0378,0.0429,0.0577,0.0605,0.0604,0.0665,0.0704,0.0713,0.0721,0.0727,0.0819,0.0834,0.065,0.0649,0.0648,0.0647,0,0.0222,0.0262,0.0241,0.0296,0.0239,0.0213,0.0217,0.0216,0.0272,0.0336,0.0485,0.0513,0.06,0.0628,0.069,0.0753,0.0811,0.0729,0.0722,0.075,0.0844,0.0857,0.0662,0.0659,0.0656,0.0654,0,0,0.0199,0.0232,0.0244,0.03,0.0267,0.0236,0.0259,0.0328,0.0432,0.0488,0.0616,0.0743,0.0766,0.0824,0.0829,0.0835,0.0946,0.0846,0.0842,0.0996,0.1061,0.0973,0.0979,0.0923,0.0924,0.0924,0.1147,0,0.022,0.0272,0.0251,0.0295,0.033,0.0291,0.0353,0.0418,0.0517,0.0643,0.074,0.0899,0.0856,0.0928,0.0924,0.0927,0.0976,0.0901,0.0958,0.0961,0.0923,0.0984,0.0927,0.1156,0.1158,0.116,0.1162,0,0.0256,0.0299,0.0332,0.0415,0.0426,0.0445,0.0518,0.0578,0.0757,0.0854,0.0965,0.1058,0.1113,0.1041,0.1083,0.1076,0.109,0.1084,0.109,0.0939,0.089,0.1087,0.1184,0.1182,0.118,0.1179,0.1178,0,0.0324,0.0385,0.0431,0.0436,0.0493,0.0519,0.0574,0.0688,0.0772,0.0979,0.1051,0.119,0.1239,0.1242,0.1215,0.1199,0.1268,0.1207,0.1156,0.1156,0.1096,0.1082,0.1232,0.1231,0.1231,0.123,0.1229,0,0.0379,0.0436,0.0504,0.0537,0.0643,0.0656,0.0782,0.0849,0.0974,0.1108,0.1181,0.1227,0.1292,0.1327,0.1302,0.1276,0.1322,0.1196,0.1186,0.1176,0.1168,0.1112,0.1096,0.1239,0.1237,0.1235,0.1234,0,0.0384,0.0449,0.0528,0.0628,0.0675,0.075,0.084,0.0937,0.1051,0.1155,0.1217,0.132,0.1372,0.14,0.144,0.1367,0.1348,0.1326,0.1413,0.1399,0.126,0.1249,0.134,0.1339,0.1337,0.1336,0.1335,0,0.0344,0.0411,0.0554,0.061,0.0647,0.0762,0.0835,0.0969,0.1022,0.1164,0.12,0.133,0.1372,0.1374,0.1407,0.1426,0.1361,0.1405,0.1247,0.128,0.1262,0.1253,0.1245,0.1333,0.1332,0.1332,0.1331,0,0.0296,0.039,0.0465,0.0553,0.0644,0.0724,0.084,0.0878,0.1022,0.1105,0.1164,0.1217,0.1291,0.134,0.1381,0.1351,0.1397,0.1389,0.1391,0.1242,0.1271,0.1253,0.1247,0.1326,0.1327,0.1328,0.1328,0,0.0268,0.0319,0.0451,0.0509,0.0601,0.0677,0.0739,0.0809,0.0894,0.1039,0.1071,0.1157,0.1289,0.1304,0.1308,0.1313,0.1278,0.1219,0.1229,0.1235,0.1083,0.1097,0.1112,0,0,0,0,0,0.0239,0.0343,0.0392,0.0501,0.0538,0.0603,0.0729,0.0784,0.0916,0.0925,0.1001,0.1051,0.1111,0.1168,0.1151,0.1267,0.1285,0.1242,0.1221,0.1298,0.1304,0.1126,0,0,0,0,0,0,0.0273,0.0369,0.0407,0.0439,0.0473,0.054,0.0628,0.071,0.0722,0.0847,0.0877,0.0978,0.1044,0.11,0.1124,0.1144,0.1108,0.1314,0.1311,0.1295,0.13,0.1305,0.1124,0,0,0,0,0]},{"header":{"parameterUnit":"m.s-1","parameterCategory":2,"la1":30.2991,"la2":30.254,"lo1":-89.0895,"lo2":-89.0444,"dy":0.0017,"dx":0.0017,"nx":28,"ny":28,"refTime":"2025-12-29T09:00:00:Z","depth":"4","parameterNumber":3,"parameterNumberName":"V-component_of_CURRENTS"},"data":[0,0,0,0,0,0,0,0,0,0,0,0,0,0,0,0,0,0,0,0,0,0,0,0,0,0,0,0,0,0,0,0,0,0,0,0,0,0,0,0,0,0,0,0,0,0,0,0,0,0,0,0,0,0,0,0,0,0,0.0616,0.0619,0,0.0679,0.0678,0.0677,0.0673,0.0674,0.0675,0.0676,0.0624,0.0622,0.062,0,0,0,0,0,0,0,0,0,0,0,0,0,0.0541,0.054,0.0616,0.0619,0.0621,0.0679,0.0678,0.0677,0.0673,0.0674,0.0675,0.0676,0.0625,0.0622,0.0619,0,0,0,0,0,0,0,0,0,0,0,0,0,0.0565,0.054,0.0616,0.0642,0.0647,0.0679,0.0678,0.0676,0.0673,0.0674,0.0676,0.0677,0.0626,0.0623,0.0619,0.0567,0,0,0.0608,0.0607,0,0,0,0,0,0,0,0,0.0564,0.0565,0.0635,0.0641,0.0646,0.0688,0.0634,0.0641,0.0672,0.064,0.0676,0.0678,0.0648,0.0643,0.0622,0.0564,0.0562,0.0608,0.0606,0.0604,0.0603,0,0,0,0,0,0,0,0.0562,0.0563,0.0619,0.0639,0.0645,0.0669,0.0671,0.0634,0.0616,0.0643,0.0648,0.0689,0.0647,0.0626,0.0621,0.0561,0.0608,0.0605,0.0603,0.0602,0.0565,0.0567,0,0,0,0,0,0,0.0592,0.0561,0.0618,0.0623,0.0632,0.0671,0.0672,0.0656,0.0619,0.0622,0.0687,0.0689,0.0631,0.0625,0.0619,0.0595,0.0604,0.0601,0.0599,0.0564,0.0566,0.0567,0,0,0,0,0,0,0.0589,0.0594,0.0616,0.0614,0.0622,0.0672,0.0653,0.0657,0.0648,0.0658,0.0654,0.0679,0.0632,0.0624,0.0601,0.0592,0.06,0.0596,0.0563,0.0565,0.0566,0.0522,0,0,0,0,0,0,0.0585,0.0591,0.0578,0.0614,0.0624,0.0648,0.0654,0.0658,0.068,0.0682,0.0649,0.0646,0.0633,0.0607,0.0598,0.0588,0.0594,0.0562,0.0564,0.0566,0.0522,0.0522,0.0522,0,0,0,0,0,0.0581,0.059,0.0574,0.0584,0.0605,0.0651,0.0653,0.0683,0.0679,0.0675,0.0657,0.0647,0.0616,0.0603,0.0593,0.0582,0.0561,0.0563,0.0566,0.0522,0.0522,0.0522,0,0,0,0,0,0,0.0575,0.0593,0.0577,0.0592,0.062,0.0658,0.0694,0.0681,0.0658,0.0665,0.0637,0.0631,0.0607,0.0612,0.0599,0.0588,0.0596,0.0596,0.0567,0.0566,0.0566,0.0604,0.0591,0,0,0,0,0,0.056,0.0551,0.0584,0.0596,0.0625,0.0642,0.0663,0.0671,0.0677,0.0669,0.0665,0.0653,0.0606,0.0601,0.0581,0.056,0.0561,0.0561,0.0561,0.056,0.059,0.0584,0.0585,0.0575,0.0575,0.0575,0,0,0.0581,0.058,0.0587,0.0593,0.0626,0.0653,0.0654,0.0702,0.0697,0.0665,0.0674,0.0641,0.06,0.0578,0.0572,0.0582,0.0555,0.0563,0.0562,0.0593,0.0586,0.0587,0.0587,0.0577,0.0577,0.0576,0,0,0.0627,0.0605,0.0621,0.0629,0.0674,0.0681,0.0693,0.0733,0.0726,0.0703,0.0685,0.0674,0.0615,0.0613,0.0582,0.0579,0.0544,0.056,0.059,0.0582,0.0583,0.0583,0.0538,0.0535,0.0571,0.0571,0.0571,0,0.0654,0.0638,0.0642,0.0656,0.0689,0.0692,0.073,0.0709,0.0728,0.0723,0.0713,0.0656,0.0637,0.0592,0.0595,0.0578,0.0545,0.0576,0.0579,0.058,0.0581,0.0535,0.0532,0.0569,0.057,0.057,0.057,0,0.0692,0.0685,0.0716,0.0708,0.0741,0.0774,0.0781,0.0788,0.0772,0.0744,0.0712,0.0684,0.0661,0.0641,0.0599,0.0596,0.0555,0.0561,0.0568,0.0578,0.053,0.0528,0.0567,0.0568,0.0568,0.0568,0,0,0.0731,0.0738,0.0742,0.0742,0.0763,0.0795,0.0807,0.0808,0.0798,0.0774,0.0748,0.0697,0.0688,0.0662,0.063,0.0631,0.059,0.0595,0.0595,0.0533,0.0523,0.0475,0.0467,0.0567,0.0568,0.0568,0.0467,0,0.0756,0.0774,0.0782,0.0816,0.0838,0.085,0.0868,0.0861,0.0822,0.0793,0.0738,0.0692,0.0683,0.0658,0.0655,0.0601,0.0589,0.0615,0.0542,0.054,0.0482,0.0467,0.057,0.0466,0.0465,0.0465,0.0464,0,0.0771,0.0771,0.0812,0.0848,0.0873,0.0897,0.0926,0.0932,0.0878,0.0845,0.0796,0.0725,0.0697,0.0687,0.0635,0.0634,0.059,0.0557,0.0552,0.0535,0.0491,0.047,0.046,0.046,0.0461,0.0461,0.0461,0,0.0759,0.0793,0.0818,0.0822,0.087,0.0907,0.0948,0.0948,0.0951,0.0868,0.0843,0.0769,0.0735,0.0682,0.0607,0.0605,0.0531,0.0525,0.0443,0.0437,0.0527,0.0529,0.0508,0.0508,0.0509,0.0509,0.0509,0,0.0745,0.0775,0.0807,0.0807,0.0868,0.0917,0.0961,0.0979,0.0974,0.0963,0.0876,0.0841,0.0734,0.0656,0.0594,0.0502,0.0526,0.0451,0.0419,0.0505,0.0506,0.0522,0.0525,0.0505,0.0506,0.0507,0.0507,0,0.0749,0.0751,0.0787,0.0835,0.0856,0.091,0.0995,0.1009,0.1019,0.0997,0.097,0.088,0.0781,0.0665,0.0558,0.0496,0.041,0.0377,0.0446,0.0419,0.0314,0.0317,0.0263,0.0261,0.0259,0.0258,0.0256,0,0.0752,0.0755,0.0807,0.0834,0.0865,0.0929,0.0975,0.1018,0.1031,0.1026,0.1011,0.09,0.0818,0.0621,0.0521,0.0359,0.0356,0.0291,0.0339,0.0321,0.0295,0.03,0.0305,0.0253,0.0253,0.0252,0.0252,0,0.0761,0.0784,0.081,0.0867,0.0909,0.0956,0.102,0.1024,0.106,0.1059,0.1004,0.0878,0.0753,0.0596,0.0459,0.0364,0.0318,0.0271,0.0275,0.0319,0.0307,0.0285,0.0292,0.0245,0.0246,0.0246,0.0247,0,0.078,0.0802,0.0832,0.0889,0.0963,0.0996,0.1005,0.1019,0.1032,0.1023,0.0997,0.0872,0.0794,0.0599,0.0489,0.0362,0.0343,0.0311,0.0312,0.0318,0.0371,0.0366,0.0297,0,0,0,0,0,0.0795,0.0804,0.0852,0.0895,0.0993,0.1024,0.1058,0.1052,0.1055,0.101,0.1007,0.0886,0.0688,0.0612,0.0475,0.0464,0.0328,0.03,0.0294,0.0208,0.0215,0.0265,0,0,0,0,0,0,0.0779,0.0834,0.0836,0.0924,0.0967,0.1035,0.1054,0.1033,0.1009,0.0997,0.0892,0.0851,0.0662,0.0765,0.0473,0.0438,0.0413,0.0217,0.0214,0.0203,0.021,0.0217,0.027,0,0,0,0,0]}]]